Location: Erba
(45.8000°N, 9.2500°E)
Time: 11:49:25
(UTC+01:00)

ISS - Pass Details

Date: 13 January 2019
Orbit: 404 x 407 km, 51.6° (Epoch: 16 January)

Event Time Altitude Azimuth Distance (km) Brightness Sun altitude
Exits shadow 05:47:22 18° 170° (S) 1,072 -1.5 -22.8°
Drops below altitude 10° 05:48:31 10° 157° (SSE) 1,460 -0.6 -22.6°
Sets 05:50:44 0° 146° (SE) 2,316 0.6 -22.2°
